User: anonymous   Login
Location: Caixon
(43.4106°N, 0.0273°E)
Time: 22:34:32
(UTC+00:00)
Language:

Cosmos 1908 - Orbit

View from above orbital plane
View from above orbital plane
View from above satellite
View from above satellite

Ground track
Ground track

The orbit data is extracted from the following two-line orbital elements,

1 18748U 88001A   22019.59616794  .00003232  00000-0  16692-3 0  9993
2 18748  82.4706 202.3179 0012642 200.5589 159.5137 15.15904150859425
Epoch (UTC): 19 January 2022 14:18:28
Eccentricity: 0.0012642
inclination: 82.4706°
perigee height: 509 km
apogee height: 527 km
right ascension of ascending node: 202.3179°
argument of perigee: 200.5589°
revolutions per day: 15.15904150
mean anomaly at epoch: 159.5137°
orbit number at epoch: 85942

The dashed part of the orbit path shows where the satellite is in the earth's shadow,  

DLR